User: anonymous   Login
Location: Unspecified
(0.0000°N, 0.0000°E)
Time: 05:45:38
(UTC+00:00)
Language:

UCLSAT - Orbit

View from above orbital plane
View from above orbital plane
View from above satellite
View from above satellite

Ground track
Ground track

The orbit data is extracted from the following two-line orbital elements,

1 42765U 17036A   19083.70960909  .00000994  00000-0  45792-4 0  9995
2 42765  97.3618 143.5193 0012049 164.1829 195.9786 15.22515977 97389
Epoch (UTC): 24 March 2019 17:01:50
Eccentricity: 0.0012049
inclination: 97.3618°
perigee height: 490 km
apogee height: 506 km
right ascension of ascending node: 143.5193°
argument of perigee: 164.1829°
revolutions per day: 15.22515977
mean anomaly at epoch: 195.9786°
orbit number at epoch: 9738

The dashed part of the orbit path shows where the satellite is in the earth's shadow,  

DLR